[[{"header":{"parameterUnit":"m.s-1","parameterCategory":1,"la1":30.2991,"la2":30.254,"lo1":-89.0895,"lo2":-89.0444,"dy":0.0017,"dx":0.0017,"nx":28,"ny":28,"refTime":"2023-10-30T09:00:00:Z","depth":0,"parameterNumber":2,"parameterNumberName":"U-component_of_WINDS"},"data":[0,0,0,0,0,0,0,0,0,0,0,0,0,0,0,0,0,0,0,0,0,0,0,0,0,0,0,0,0,0,0,0,0,0,0,0,0,0,0,0,0,0,0,0,0,0,0,0,0,0,0,0,0,0,0,0,0,0,1.1044,1.1044,0,1.1052,1.1053,1.1053,1.1059,1.1059,1.1059,1.1059,1.1068,1.1069,1.1069,0,0,0,0,0,0,0,0,0,0,0,0,0,1.1035,1.1035,1.1044,1.1044,1.1044,1.1052,1.1053,1.1053,1.1059,1.1059,1.1059,1.1059,1.1068,1.1069,1.1069,0,0,0,0,0,0,0,0,0,0,0,0,0,1.104,1.1035,1.1044,1.1048,1.1049,1.1052,1.1053,1.1053,1.1059,1.1059,1.1059,1.1059,1.1068,1.1069,1.1069,1.1069,0,0,1.107,1.107,0,0,0,0,0,0,0,0,1.104,1.1041,1.1048,1.1048,1.1049,1.1055,1.1053,1.1058,1.1059,1.1055,1.1059,1.1059,1.1064,1.1065,1.1066,1.1069,1.107,1.107,1.107,1.107,1.107,0,0,0,0,0,0,0,1.104,1.104,1.1047,1.1048,1.1048,1.105,1.1051,1.1054,1.1059,1.1056,1.1056,1.1057,1.1064,1.1066,1.1066,1.107,1.107,1.107,1.107,1.107,1.1075,1.1075,0,0,0,0,0,0,1.1038,1.104,1.1047,1.1048,1.1044,1.1051,1.1052,1.1053,1.1059,1.106,1.1057,1.1057,1.1065,1.1066,1.1067,1.1067,1.107,1.107,1.107,1.1075,1.1075,1.1075,0,0,0,0,0,0,1.1038,1.1039,1.1047,1.1044,1.1045,1.1051,1.1052,1.1053,1.1054,1.106,1.1061,1.1057,1.1065,1.1066,1.1068,1.1068,1.107,1.1071,1.1075,1.1075,1.1075,1.1069,0,0,0,0,0,0,1.1038,1.1039,1.1038,1.1044,1.1045,1.1048,1.1052,1.1053,1.1055,1.1055,1.1061,1.1062,1.1065,1.1068,1.1069,1.1068,1.1071,1.1075,1.1075,1.1075,1.1069,1.1069,1.1068,0,0,0,0,0,1.1038,1.1036,1.1038,1.1039,1.1045,1.1048,1.1049,1.1053,1.1055,1.1055,1.1059,1.1061,1.1068,1.1068,1.1069,1.1069,1.1075,1.1075,1.1075,1.1069,1.1069,1.1068,0,0,0,0,0,0,1.103,1.1037,1.1039,1.104,1.1043,1.1049,1.1049,1.1052,1.1055,1.1055,1.1061,1.1062,1.1064,1.1067,1.1067,1.107,1.1072,1.1072,1.1068,1.1067,1.1067,1.1066,1.1071,0,0,0,0,0,1.1029,1.103,1.1036,1.1036,1.1038,1.1043,1.1045,1.1048,1.1052,1.1053,1.1057,1.1061,1.1064,1.1066,1.1069,1.107,1.1072,1.107,1.107,1.107,1.1069,1.1071,1.1071,1.1075,1.1075,1.1075,0,0,1.1025,1.1029,1.103,1.1035,1.1038,1.104,1.1044,1.1046,1.1048,1.1053,1.1056,1.1059,1.1064,1.1066,1.1067,1.1068,1.1069,1.1069,1.1069,1.1069,1.1071,1.1071,1.107,1.1074,1.1074,1.1075,0,0,1.102,1.1023,1.1024,1.1027,1.1032,1.1036,1.1036,1.1042,1.1044,1.1047,1.1051,1.1054,1.1059,1.1062,1.1065,1.1063,1.1066,1.1064,1.1061,1.1063,1.1063,1.1063,1.1062,1.1062,1.1064,1.1064,1.1064,0,1.1016,1.1019,1.1024,1.1025,1.1028,1.1034,1.1035,1.1038,1.1043,1.1045,1.1046,1.1054,1.1057,1.1061,1.106,1.1062,1.1063,1.1063,1.1062,1.1062,1.1062,1.1062,1.1062,1.1064,1.1064,1.1064,1.1064,0,1.1013,1.1015,1.1015,1.102,1.1023,1.1024,1.103,1.1032,1.1036,1.104,1.1043,1.1048,1.1052,1.1054,1.1057,1.1058,1.1059,1.1061,1.1064,1.1061,1.1061,1.1061,1.1063,1.1063,1.1064,1.1064,0,0,1.1002,1.1011,1.1011,1.1014,1.1021,1.1023,1.1025,1.103,1.1032,1.1036,1.1038,1.1043,1.1046,1.1049,1.1053,1.1054,1.1054,1.1057,1.1057,1.1056,1.1056,1.1054,1.1054,1.1056,1.1056,1.1056,1.1056,0,1.0998,1.1002,1.1007,1.1009,1.1012,1.1018,1.102,1.1025,1.1029,1.1033,1.1038,1.1041,1.1044,1.1046,1.1048,1.1053,1.1054,1.1053,1.1059,1.1059,1.1057,1.1054,1.1051,1.105,1.1056,1.1056,1.1056,0,1.0993,1.0997,1.1,1.1007,1.1008,1.101,1.1015,1.1018,1.1024,1.1028,1.1032,1.1036,1.104,1.1043,1.1048,1.1048,1.1051,1.1054,1.1054,1.1054,1.1057,1.1054,1.105,1.105,1.1056,1.1056,1.1056,0,1.0985,1.0991,1.0994,1.0996,1.1005,1.1006,1.101,1.1016,1.1019,1.1024,1.1026,1.1032,1.1035,1.1039,1.1046,1.1047,1.1051,1.1054,1.1054,1.1054,1.1054,1.1054,1.105,1.1056,1.1056,1.1056,1.1056,0,1.098,1.0981,1.099,1.0992,1.0994,1.1001,1.1003,1.1008,1.1013,1.1016,1.1023,1.1026,1.1034,1.1038,1.1044,1.1048,1.1049,1.1052,1.1053,1.1051,1.1051,1.1053,1.1053,1.1056,1.1056,1.1056,1.1056,0,1.097,1.0977,1.098,1.0989,1.0991,1.0992,1.1,1.1002,1.1007,1.1011,1.1012,1.1021,1.1026,1.1033,1.1041,1.1045,1.1048,1.105,1.1046,1.1047,1.1047,1.1046,1.1044,1.1044,1.105,1.105,1.105,0,1.0966,1.0967,1.0976,1.0979,1.0982,1.0986,1.0989,1.0997,1.1,1.1008,1.101,1.1016,1.1021,1.103,1.1037,1.1043,1.1045,1.1044,1.1046,1.1044,1.1045,1.1045,1.1046,1.1043,1.1043,1.1043,1.1043,0,1.0958,1.0962,1.0966,1.0972,1.0975,1.098,1.0985,1.0987,1.0996,1.1,1.1006,1.101,1.1018,1.1024,1.1032,1.1037,1.1041,1.1042,1.1043,1.104,1.1038,1.1039,1.1044,1.1042,1.1042,1.1042,1.1042,1.1042,1.0951,1.0953,1.096,1.0965,1.097,1.0975,1.0978,1.0984,1.0988,1.0996,1.1,1.1006,1.1014,1.1024,1.1029,1.1034,1.1036,1.1036,1.1037,1.1036,1.1036,1.1037,1.1036,1.1036,1.1036,1.1036,1.1036,0,1.0943,1.0949,1.0953,1.096,1.0965,1.0969,1.0976,1.0979,1.0984,1.0991,1.0996,1.1003,1.101,1.1018,1.1025,1.1028,1.1031,1.103,1.1029,1.1031,1.1034,1.1033,1.1028,1.1028,1.1028,1.1028,1.1028,1.1028,1.094,1.0943,1.0948,1.0954,1.096,1.0965,1.0969,1.0974,1.0979,1.0987,1.0993,1.0998,1.1006,1.1014,1.1021,1.1023,1.1025,1.1024,1.1027,1.103,1.103,1.1031,1.103,1.1024,1.1024,1.1023,1.1023,1.1023]},{"header":{"parameterUnit":"m.s-1","parameterCategory":1,"la1":30.2991,"la2":30.254,"lo1":-89.0895,"lo2":-89.0444,"dy":0.0017,"dx":0.0017,"nx":28,"ny":28,"refTime":"2023-10-30T09:00:00:Z","depth":0,"parameterNumber":3,"parameterNumberName":"V-component_of_WINDS"},"data":[0,0,0,0,0,0,0,0,0,0,0,0,0,0,0,0,0,0,0,0,0,0,0,0,0,0,0,0,0,0,0,0,0,0,0,0,0,0,0,0,0,0,0,0,0,0,0,0,0,0,0,0,0,0,0,0,0,0,-8.1387,-8.1388,0,-8.1489,-8.149,-8.1491,-8.1431,-8.1428,-8.1425,-8.1422,-8.152,-8.1525,-8.1531,0,0,0,0,0,0,0,0,0,0,0,0,0,-8.1133,-8.1138,-8.1387,-8.1388,-8.1389,-8.1489,-8.149,-8.1491,-8.1432,-8.1428,-8.1424,-8.1421,-8.1518,-8.1525,-8.1531,0,0,0,0,0,0,0,0,0,0,0,0,0,-8.124,-8.1139,-8.1386,-8.1371,-8.1371,-8.1488,-8.149,-8.1492,-8.1432,-8.1428,-8.1424,-8.142,-8.1516,-8.1524,-8.1532,-8.1668,0,0,-8.1556,-8.156,0,0,0,0,0,0,0,0,-8.1234,-8.1249,-8.1372,-8.1373,-8.1373,-8.1443,-8.1436,-8.1551,-8.1433,-8.1409,-8.1422,-8.1417,-8.1498,-8.1507,-8.1535,-8.1672,-8.1676,-8.1557,-8.1562,-8.1565,-8.1567,0,0,0,0,0,0,0,-8.1226,-8.1244,-8.1427,-8.1374,-8.1374,-8.1357,-8.1368,-8.1458,-8.1476,-8.1411,-8.1407,-8.142,-8.1497,-8.1528,-8.1537,-8.1678,-8.1557,-8.1564,-8.1569,-8.1572,-8.1931,-8.1936,0,0,0,0,0,0,-8.1221,-8.1238,-8.1423,-8.143,-8.1291,-8.1366,-8.1377,-8.1425,-8.1475,-8.1479,-8.1423,-8.1417,-8.1516,-8.1528,-8.154,-8.1703,-8.1565,-8.1573,-8.1577,-8.1926,-8.1932,-8.1937,0,0,0,0,0,0,-8.1216,-8.1238,-8.1419,-8.1333,-8.1355,-8.1375,-8.1428,-8.1429,-8.146,-8.1485,-8.1487,-8.1452,-8.1513,-8.1529,-8.1637,-8.1705,-8.1576,-8.1583,-8.1921,-8.1928,-8.1935,-8.2028,0,0,0,0,0,0,-8.1209,-8.1237,-8.129,-8.1335,-8.136,-8.1517,-8.1432,-8.1434,-8.1475,-8.1467,-8.1512,-8.1516,-8.1511,-8.1625,-8.1645,-8.1714,-8.159,-8.1915,-8.1924,-8.1933,-8.2019,-8.2038,-8.2054,0,0,0,0,0,-8.12,-8.131,-8.1293,-8.1315,-8.1427,-8.1521,-8.1535,-8.1529,-8.148,-8.1533,-8.1549,-8.1514,-8.1695,-8.1637,-8.1658,-8.1731,-8.191,-8.1921,-8.1932,-8.2011,-8.2034,-8.2053,0,0,0,0,0,0,-8.127,-8.1316,-8.1297,-8.1426,-8.147,-8.151,-8.1577,-8.1553,-8.1611,-8.1601,-8.1589,-8.16,-8.1713,-8.1732,-8.1667,-8.1865,-8.1795,-8.181,-8.1848,-8.187,-8.1886,-8.1879,-8.1596,0,0,0,0,0,-8.1301,-8.1375,-8.141,-8.152,-8.1544,-8.1557,-8.1597,-8.159,-8.1634,-8.1652,-8.1675,-8.1718,-8.1784,-8.1828,-8.189,-8.2022,-8.203,-8.2082,-8.2099,-8.2113,-8.2127,-8.2197,-8.2221,-8.1973,-8.1973,-8.1972,0,0,-8.1364,-8.1399,-8.1446,-8.1536,-8.1569,-8.1644,-8.1573,-8.1655,-8.171,-8.1663,-8.1767,-8.1787,-8.1833,-8.1954,-8.2008,-8.1973,-8.2197,-8.2127,-8.2138,-8.2144,-8.2211,-8.2234,-8.2255,-8.198,-8.1979,-8.1978,0,0,-8.1519,-8.1553,-8.1649,-8.1684,-8.1737,-8.1745,-8.1768,-8.1813,-8.1824,-8.1929,-8.1896,-8.196,-8.2074,-8.2109,-8.2142,-8.2311,-8.2281,-8.2331,-8.2421,-8.249,-8.251,-8.2527,-8.2587,-8.2609,-8.2345,-8.2345,-8.2345,0,-8.159,-8.1705,-8.17,-8.1786,-8.1826,-8.179,-8.1886,-8.192,-8.1989,-8.2017,-8.1978,-8.2122,-8.215,-8.2278,-8.232,-8.2348,-8.2372,-8.2326,-8.2508,-8.2525,-8.2541,-8.2598,-8.2621,-8.2351,-8.235,-8.235,-8.2349,0,-8.179,-8.187,-8.1941,-8.2012,-8.206,-8.215,-8.2157,-8.2206,-8.2195,-8.2206,-8.2313,-8.2347,-8.2415,-8.2445,-8.2433,-8.2572,-8.2549,-8.251,-8.2439,-8.2571,-8.2624,-8.2646,-8.2359,-8.2357,-8.2355,-8.2354,0,0,-8.199,-8.2059,-8.2085,-8.2117,-8.2174,-8.2234,-8.2322,-8.2392,-8.2434,-8.2483,-8.2556,-8.2654,-8.2619,-8.2656,-8.2647,-8.2709,-8.284,-8.2661,-8.2662,-8.2693,-8.2994,-8.3023,-8.3049,-8.2821,-8.2825,-8.2828,-8.299,0,-8.2148,-8.2306,-8.2305,-8.2449,-8.2522,-8.249,-8.2566,-8.2608,-8.2621,-8.2683,-8.2697,-8.2767,-8.2715,-8.2737,-8.2796,-8.2812,-8.29,-8.28,-8.2887,-8.289,-8.2876,-8.3077,-8.3108,-8.3259,-8.3011,-8.3014,-8.3017,0,-8.2353,-8.2413,-8.2566,-8.2612,-8.2642,-8.2712,-8.2776,-8.2837,-8.2883,-8.2888,-8.2931,-8.2913,-8.3001,-8.2929,-8.3049,-8.2981,-8.3016,-8.3029,-8.3035,-8.3042,-8.2961,-8.3089,-8.3307,-8.3329,-8.305,-8.3047,-8.3045,0,-8.2484,-8.2601,-8.2708,-8.2737,-8.2793,-8.2843,-8.2868,-8.291,-8.2953,-8.3008,-8.3035,-8.3099,-8.3133,-8.3182,-8.3182,-8.313,-8.3303,-8.3231,-8.3309,-8.3309,-8.3346,-8.3344,-8.3572,-8.337,-8.337,-8.3369,-8.3369,0,-8.266,-8.2755,-8.2768,-8.2834,-8.2938,-8.2935,-8.3038,-8.3058,-8.3097,-8.3164,-8.3138,-8.3202,-8.3198,-8.3261,-8.3262,-8.3361,-8.3376,-8.3382,-8.3381,-8.3384,-8.3383,-8.3406,-8.3396,-8.3375,-8.3374,-8.3373,-8.3372,0,-8.2823,-8.2836,-8.2951,-8.2996,-8.3009,-8.3085,-8.3122,-8.3183,-8.3195,-8.3281,-8.33,-8.3318,-8.3392,-8.3397,-8.3481,-8.3481,-8.3601,-8.3588,-8.3587,-8.3584,-8.3661,-8.3654,-8.3912,-8.3946,-8.3722,-8.3724,-8.3726,0,-8.2935,-8.3008,-8.3062,-8.3107,-8.3136,-8.3208,-8.3252,-8.3251,-8.3297,-8.3356,-8.341,-8.3482,-8.3539,-8.3658,-8.3676,-8.3741,-8.3729,-8.3815,-8.3738,-8.374,-8.373,-8.3725,-8.3732,-8.383,-8.3832,-8.3834,-8.3836,0,-8.3131,-8.3135,-8.32,-8.3269,-8.3323,-8.3376,-8.3425,-8.3463,-8.3468,-8.3521,-8.3597,-8.3642,-8.373,-8.3801,-8.3864,-8.3887,-8.3862,-8.386,-8.3882,-8.3885,-8.3881,-8.3884,-8.3627,-8.3854,-8.3852,-8.3851,-8.385,-8.3849,-8.3272,-8.3335,-8.3384,-8.3458,-8.3495,-8.3543,-8.3603,-8.3623,-8.3688,-8.3761,-8.3756,-8.3841,-8.3884,-8.3967,-8.3995,-8.406,-8.403,-8.4061,-8.4069,-8.4076,-8.4084,-8.3872,-8.4071,-8.4071,-8.407,-8.407,-8.4069,0,-8.3467,-8.3497,-8.3565,-8.3637,-8.3695,-8.367,-8.3723,-8.3772,-8.3848,-8.3892,-8.395,-8.4038,-8.4107,-8.4132,-8.4199,-8.4245,-8.4236,-8.4263,-8.4259,-8.4264,-8.4107,-8.4082,-8.427,-8.427,-8.427,-8.4269,-8.4269,-8.4269,-8.3575,-8.3681,-8.369,-8.3814,-8.3842,-8.3927,-8.396,-8.4003,-8.4038,-8.4138,-8.4197,-8.4213,-8.4249,-8.4319,-8.438,-8.4386,-8.4411,-8.4443,-8.4443,-8.4296,-8.4276,-8.4256,-8.4233,-8.4449,-8.4449,-8.4595,-8.4596,-8.4598]}]]